Date String (YYYY-MM-DD hh:mm:ss) UTC,Instrument flags,Ambient pressure (hPa),Sample flow (lpm),Bypass flow (lpm),Sample temperature (°C),Ambient temperature (°C),ASC tube jacket temperature (°C),LED temperature (°C),Box temperature (°C),Sample RH (%),Span deviation,Mass concentration (μg/m³),Mass concentration (μg/m³),Mass concentration (μg/m³)
DateTimeUTC,F1_M11,P_M11,Q1_M11,Q2_M11,T1_M11,T2_M11,T3_M11,T4_M11,T5_M11,U1_M11,ZSPAN_M11,X0_M11,X2_M11,X1_M11
2022-12-05 17:00:00,,0817.5,5.00,0.00,22.0,20.7,00.0,30.9,23.8,16.1,0000.0,0001.50,0000.60,0000.39
2022-12-05 17:01:00,,0817.6,5.00,0.00,22.0,20.7,00.0,30.9,23.8,16.1,0000.0,0001.61,0000.57,0000.38
2022-12-05 17:02:00,,0817.6,4.99,0.00,22.0,20.7,00.0,30.9,23.8,16.1,0000.0,0001.59,0000.56,0000.38
2022-12-05 17:03:00,,0817.8,5.02,0.00,22.0,20.7,00.0,30.9,23.8,16.2,0000.0,0001.51,0000.55,0000.38
2022-12-05 17:04:00,,0817.9,4.98,0.00,22.0,20.7,00.0,30.9,23.8,16.1,0000.0,0002.84,0000.56,0000.38
2022-12-05 17:05:00,,0817.8,5.00,0.00,22.0,20.7,00.0,31.0,23.8,16.3,0000.0,0002.92,0000.55,0000.37
2022-12-05 17:06:00,,0817.8,5.01,0.00,22.0,20.7,00.0,31.0,23.7,16.3,0000.0,0002.89,0000.53,0000.37
2022-12-05 17:07:00,,0817.8,5.01,0.00,22.0,20.7,00.0,31.0,23.8,16.2,0000.0,0002.89,0000.54,0000.37
2022-12-05 17:08:00,,0817.9,5.00,0.00,22.0,20.7,00.0,31.0,23.8,16.2,0000.0,0002.90,0000.54,0000.37
2022-12-05 17:09:00,,0817.9,5.00,0.00,22.0,20.7,00.0,31.0,23.8,16.2,0000.0,0002.98,0000.56,0000.37
2022-12-05 17:10:00,,0818.0,5.00,0.00,22.0,20.7,00.0,31.0,23.8,16.4,0000.0,0003.01,0000.57,0000.36
2022-12-05 17:11:00,,0817.9,5.00,0.00,22.0,20.7,00.0,31.0,23.8,16.5,0000.0,0002.66,0000.56,0000.36
2022-12-05 17:12:00,,0817.9,4.99,0.00,22.0,20.7,00.0,31.0,23.8,16.3,0000.0,0002.42,0000.56,0000.36
2022-12-05 17:13:00,,0818.0,5.00,0.00,22.0,20.7,00.0,31.0,23.8,16.2,0000.0,0002.43,0000.57,0000.36
2022-12-05 17:14:00,,0818.0,5.01,0.00,22.0,20.7,00.0,31.0,23.8,16.3,0000.0,0002.47,0000.59,0000.36
2022-12-05 17:15:00,,0818.1,4.98,0.00,22.0,20.8,00.0,31.0,23.8,16.4,0000.0,0001.30,0000.58,0000.36
2022-12-05 17:16:00,,0818.2,5.01,0.00,22.0,20.8,00.0,31.0,23.8,16.2,0000.0,0001.05,0000.59,0000.36
2022-12-05 17:17:00,,0818.3,5.01,0.00,22.0,20.8,00.0,31.0,23.8,16.4,0000.0,0001.06,0000.59,0000.36
2022-12-05 17:18:00,,0818.3,5.00,0.00,22.1,20.8,00.0,31.0,23.8,16.3,0000.0,0001.03,0000.57,0000.36
2022-12-05 17:19:00,,0818.3,5.01,0.00,22.1,20.8,00.0,31.0,23.9,16.4,0000.0,0001.09,0000.55,0000.37
2022-12-05 17:20:00,,0818.4,5.00,0.00,22.1,20.9,00.0,31.0,23.9,16.1,0000.0,0001.27,0000.56,0000.37
2022-12-05 17:21:00,,0818.4,5.00,0.00,22.1,20.9,00.0,31.0,23.9,16.0,0000.0,0001.37,0000.62,0000.41
2022-12-05 17:22:00,,0818.4,5.00,0.00,22.1,20.9,00.0,31.0,24.0,17.0,0000.0,0002.89,0001.31,0000.95
2022-12-05 17:23:00,,0818.4,5.00,0.00,22.1,21.0,00.0,31.0,24.0,17.0,0000.0,0004.96,0002.13,0001.69
2022-12-05 17:24:00,,0818.5,4.99,0.00,22.1,21.0,00.0,31.0,24.0,17.2,0000.0,0006.63,0003.01,0002.50
2022-12-05 17:25:00,,0818.4,5.02,0.00,22.2,21.1,00.0,31.0,24.1,17.2,0000.0,0007.89,0003.61,0003.21
2022-12-05 17:26:00,,0818.4,4.99,0.00,22.2,21.1,00.0,31.0,24.1,17.0,0000.0,0009.58,0004.13,0003.69
2022-12-05 17:27:00,,0818.4,5.00,0.00,22.2,21.1,00.0,31.1,24.1,16.9,0000.0,0010.51,0004.67,0004.13
2022-12-05 17:28:00,,0818.5,5.01,0.00,22.2,21.2,00.0,31.1,24.1,17.0,-000.4,0011.15,0005.15,0004.55
2022-12-05 17:29:00,,0818.6,5.00,0.00,22.2,21.2,00.0,31.1,24.2,17.1,-001.1,0011.85,0005.67,0005.01
2022-12-05 17:30:00,,0818.6,5.00,0.00,22.3,21.2,00.0,31.1,24.2,17.1,-001.2,0013.14,0006.21,0005.46
2022-12-05 17:31:00,,0818.5,5.00,0.00,22.3,21.2,00.0,31.1,24.2,17.1,-000.3,0014.17,0006.71,0005.93
2022-12-05 17:32:00,,0818.5,5.00,0.00,22.3,21.2,00.0,31.1,24.2,17.0,0001.1,0015.01,0007.18,0006.36
2022-12-05 17:33:00,,0818.5,5.00,0.00,22.3,21.3,00.0,31.1,24.2,17.0,0001.2,0015.08,0007.33,0006.51
2022-12-05 17:34:00,,0818.5,5.00,0.00,22.3,21.3,00.0,31.1,24.3,16.9,0002.8,0014.63,0007.39,0006.57
2022-12-05 17:35:00,,0818.7,5.00,0.00,22.3,21.3,00.0,31.2,24.3,17.0,0002.9,0014.45,0007.42,0006.59
2022-12-05 17:36:00,,0818.7,5.00,0.00,22.3,21.3,00.0,31.2,24.3,17.0,0003.5,0014.07,0007.37,0006.60
2022-12-05 17:37:00,,0818.8,5.00,0.00,22.4,21.3,00.0,31.2,24.3,17.1,0003.5,0013.00,0007.37,0006.61
2022-12-05 17:38:00,,0818.8,5.00,0.00,22.4,21.4,00.0,31.2,24.3,17.0,0003.2,0012.72,0007.35,0006.63
2022-12-05 17:39:00,,0818.9,5.00,0.00,22.4,21.4,00.0,31.2,24.3,17.0,0003.9,0012.78,0007.41,0006.65
2022-12-05 17:40:00,,0818.9,5.00,0.00,22.4,21.4,00.0,31.2,24.3,17.0,0004.1,0012.80,0007.43,0006.64
2022-12-05 17:41:00,,0818.9,5.00,0.00,22.4,21.4,00.0,31.2,24.4,17.0,0004.0,0012.11,0007.40,0006.64
2022-12-05 17:42:00,,0818.9,5.00,0.00,22.4,21.4,00.0,31.2,24.4,16.8,0003.5,0012.18,0007.38,0006.61
2022-12-05 17:43:00,,0818.8,5.00,0.00,22.5,21.4,00.0,31.3,24.4,16.8,0003.6,0011.93,0007.37,0006.58
2022-12-05 17:44:00,,0818.8,5.01,0.00,22.5,21.4,00.0,31.3,24.4,16.9,0003.8,0011.68,0007.33,0006.56
2022-12-05 17:45:00,,0818.8,5.01,0.00,22.5,21.4,00.0,31.3,24.5,16.9,0003.4,0011.75,0007.33,0006.55
2022-12-05 17:46:00,,0818.8,5.00,0.00,22.5,21.4,00.0,31.3,24.4,16.9,0002.6,0011.80,0007.33,0006.53
2022-12-05 17:47:00,,0818.7,5.00,0.00,22.5,21.4,00.0,31.3,24.5,16.9,0002.2,0011.93,0007.34,0006.52
2022-12-05 17:48:00,,0818.8,5.00,0.00,22.5,21.4,00.0,31.3,24.5,16.9,0001.8,0011.91,0007.34,0006.50
2022-12-05 17:49:00,,0818.7,5.00,0.00,22.5,21.4,00.0,31.3,24.5,16.9,0001.9,0011.88,0007.33,0006.49
2022-12-05 17:50:00,,0818.7,5.00,0.00,22.5,21.5,00.0,31.4,24.5,16.9,0001.2,0011.82,0007.31,0006.49
2022-12-05 17:51:00,,0818.8,5.00,0.00,22.5,21.5,00.0,31.4,24.5,16.9,0001.5,0011.69,0007.26,0006.49
2022-12-05 17:52:00,,0818.7,5.00,0.00,22.5,21.5,00.0,31.4,24.5,17.0,0001.8,0011.84,0007.26,0006.47
2022-12-05 17:53:00,,0818.7,5.00,0.00,22.6,21.5,00.0,31.4,24.5,17.0,0001.4,0011.42,0007.28,0006.49
2022-12-05 17:54:00,,0818.6,5.00,0.00,22.6,21.5,00.0,31.4,24.5,17.0,0000.9,0011.40,0007.25,0006.50
2022-12-05 17:55:00,,0818.5,5.00,0.00,22.6,21.5,00.0,31.4,24.6,17.1,0001.1,0011.41,0007.24,0006.51
2022-12-05 17:56:00,,0818.6,4.99,0.00,22.6,21.5,00.0,31.4,24.6,17.1,0001.4,0011.26,0007.25,0006.52
2022-12-05 17:57:00,,0818.6,5.01,0.00,22.6,21.5,00.0,31.4,24.6,17.1,0002.4,0011.31,0007.25,0006.51
2022-12-05 17:58:00,,0818.7,5.00,0.00,22.6,21.5,00.0,31.4,24.6,17.1,0000.7,0011.22,0007.25,0006.51
2022-12-05 17:59:00,,0818.7,5.01,0.00,22.6,21.5,00.0,31.5,24.5,17.3,0000.7,0011.25,0007.22,0006.48
